LATEST WEATHER OBSERVATIONS RECORDED AT FUA'AMOTU AIRPORT
DATE TIME CLOUD WIND KT TEMP
(C)
DewPoint
(C)
RH(%) WEATHER MSL PRESS.
(MB)
17.07.2019 01:00AM CLOUDY NW 3 21.8 21.3 96.98821 FOG 1012.6
17.07.2019 12:00AM CLOUDY VARIABLE 2 21 21 100 FOG 1012
16.07.2019 11:00PM FINE  N 3 23 22 94.10911 NIL 1013
16.07.2019 10:00PM FINE  N 4 23 22 94.10911 NIL 1013
16.07.2019 09:00PM FINE  N 5 23 22 94.10911 NIL 1013
16.07.2019 08:00PM CLOUDY N 4 22 22 100 NIL 1012
16.07.2019 07:00PM CLOUDY N 3 23 21 88.52363 NIL 1012
16.07.2019 06:00PM CLOUDY NW 7 23 21 88.52363 NIL 1012
16.07.2019 05:00PM FINE  NW 10 25 22 83.46381 NIL 1011
16.07.2019 04:00PM CLOUDY SW 6 24.5 21 80.88806 NIL 1010.1
16.07.2019 03:00PM CLOUDY NW 7 22.4 21.5 94.66027 RECENT RAIN 1011
16.07.2019 02:00PM OVERCAST NW 7 22.1 21.3 95.23024 LIGHT RAIN 1011.8
16.07.2019 01:00PM OVERCAST NW 9 22.1 21.6 96.99507 MODERATE RAIN 1012.7
16.07.2019 12:00PM CLOUDY NE 9 24.9 22.8 88.14484 LIGHT SHOWERS 1013.3
16.07.2019 11:00AM CLOUDY NE 9 25.3 22.5 84.51937 NIL 1014.1
16.07.2019 10:00AM CLOUDY NE 07 25.3 22.7 85.55114 NIL 1014.4
16.07.2019 09:00AM CLOUDY E 07 24.1 22 88.0764 NIL 1014.1
16.07.2019 08:00AM CLOUDY E 07 23.1 21.4 90.17521 NIL 1013.8
16.07.2019 07:00AM CLOUDY E 07 22.9 21.5 91.83301 NIL 1013.3
16.07.2019 06:00AM CLOUDY E 06 22.9 21.5 91.83301 NIL 1013.2
16.07.2019 05:00AM CLOUDY E 05 22.9 21.2 90.16082 DRIZZLE 1013.4
16.07.2019 04:00AM CLOUDY E 6 22.8 20.8 88.50696 DRIZZLE 1013.4
16.07.2019 03:00AM CLOUDY E 5 22.9 21.1 89.60937 NIL 1014.2
16.07.2019 02:00AM CLOUDY E 5 22.4 20.6 89.57135 NIL 1014.9